Météo par heure à Aliağa

Ce jour, 13 Mai, Jeudi

Heure Température Précipitation Vent Pression Humidité
00:00 +17°C° 0 mm 2 m/s 751 mmHg 42%
01:00 +18°C° 0 mm 1 m/s 751 mmHg 42%
02:00 +16°C° 0 mm 1 m/s 751 mmHg 43%
03:00 +16°C° 0 mm 2 m/s 751 mmHg 44%
04:00 +16°C° 0 mm 2 m/s 751 mmHg 44%
05:00 +15°C° 0 mm 2 m/s 751 mmHg 44%
06:00 +17°C° 0 mm 2 m/s 751 mmHg 41%
07:00 +19°C° 0 mm 2 m/s 751 mmHg 38%
08:00 +21°C° 0 mm 2 m/s 752 mmHg 34%
09:00 +24°C° 0 mm 3 m/s 752 mmHg 33%
10:00 +25°C° 0 mm 4 m/s 752 mmHg 33%
11:00 +27°C° 0 mm 5 m/s 752 mmHg 32%
12:00 +27°C° 0 mm 5 m/s 752 mmHg 33%
13:00 +28°C° 0 mm 5 m/s 751 mmHg 34%
14:00 +28°C° 0 mm 6 m/s 751 mmHg 35%
15:00 +28°C° 0 mm 6 m/s 751 mmHg 37%
16:00 +27°C° 0 mm 5 m/s 752 mmHg 39%
17:00 +26°C° 0 mm 5 m/s 752 mmHg 41%
18:00 +23°C° 0 mm 4 m/s 752 mmHg 47%
19:00 +21°C° 0 mm 4 m/s 752 mmHg 54%
20:00 +19°C° 0 mm 3 m/s 753 mmHg 60%
21:00 +19°C° 0 mm 3 m/s 753 mmHg 61%
22:00 +18°C° 0 mm 3 m/s 753 mmHg 63%
23:00 +17°C° 0 mm 2 m/s 753 mmHg 65%

Demain, 14 Mai, Vendredi

Heure Température Précipitation Vent Pression Humidité
00:00 +17°C° 0 mm 2 m/s 753 mmHg 66%
01:00 +17°C° 0 mm 3 m/s 753 mmHg 67%
02:00 +16°C° 0 mm 3 m/s 753 mmHg 68%
03:00 +16°C° 0 mm 3 m/s 753 mmHg 69%
04:00 +16°C° 0 mm 2 m/s 753 mmHg 70%
05:00 +15°C° 0 mm 2 m/s 753 mmHg 70%
06:00 +17°C° 0 mm 2 m/s 754 mmHg 64%
07:00 +19°C° 0 mm 3 m/s 754 mmHg 57%
08:00 +21°C° 0 mm 3 m/s 754 mmHg 50%
09:00 +23°C° 0 mm 4 m/s 754 mmHg 46%
10:00 +25°C° 0 mm 5 m/s 754 mmHg 43%
11:00 +27°C° 0 mm 5 m/s 755 mmHg 39%
12:00 +27°C° 0 mm 6 m/s 754 mmHg 39%
13:00 +28°C° 0 mm 6 m/s 754 mmHg 39%
14:00 +28°C° 0 mm 6 m/s 754 mmHg 38%
15:00 +27°C° 0 mm 5 m/s 754 mmHg 41%
16:00 +26°C° 0 mm 5 m/s 755 mmHg 43%
17:00 +25°C° 0 mm 4 m/s 755 mmHg 45%
18:00 +24°C° 0 mm 3 m/s 755 mmHg 53%
19:00 +21°C° 0 mm 2 m/s 755 mmHg 60%
20:00 +20°C° 0 mm 1 m/s 755 mmHg 67%
21:00 +20°C° 0 mm 1 m/s 755 mmHg 69%
22:00 +19°C° 0 mm 1 m/s 755 mmHg 70%
23:00 +19°C° 0 mm 1 m/s 755 mmHg 72%

Après-demain, 15 Mai, Samedi

Heure Température Précipitation Vent Pression Humidité
00:00 +18°C° 0 mm 1 m/s 755 mmHg 72%
01:00 +18°C° 0 mm 1 m/s 755 mmHg 72%
02:00 +17°C° 0 mm 2 m/s 754 mmHg 72%
03:00 +16°C° 0 mm 2 m/s 754 mmHg 72%
04:00 +16°C° 0 mm 2 m/s 754 mmHg 72%
05:00 +16°C° 0 mm 2 m/s 754 mmHg 73%
06:00 +19°C° 0 mm 1 m/s 754 mmHg 65%
07:00 +21°C° 0 mm 1 m/s 754 mmHg 57%
08:00 +23°C° 0 mm 1 m/s 754 mmHg 49%
09:00 +25°C° 0 mm 1 m/s 754 mmHg 42%
10:00 +26°C° 0 mm 1 m/s 754 mmHg 36%
11:00 +28°C° 0 mm 1 m/s 753 mmHg 29%
12:00 +28°C° 0 mm 2 m/s 753 mmHg 30%
13:00 +28°C° 0 mm 3 m/s 753 mmHg 31%
14:00 +28°C° 0 mm 3 m/s 753 mmHg 32%
15:00 +27°C° 0 mm 3 m/s 753 mmHg 36%
16:00 +26°C° 0 mm 4 m/s 752 mmHg 39%
17:00 +26°C° 0 mm 4 m/s 752 mmHg 42%
18:00 +24°C° 0 mm 3 m/s 752 mmHg 51%
19:00 +21°C° 0 mm 3 m/s 752 mmHg 60%
20:00 +19°C° 0 mm 2 m/s 752 mmHg 69%
21:00 +19°C° 0 mm 2 m/s 752 mmHg 71%
22:00 +19°C° 0 mm 1 m/s 752 mmHg 74%
23:00 +19°C° 0 mm 1 m/s 752 mmHg 77%

16 Mai, Dimanche

Heure Température Précipitation Vent Pression Humidité
00:00 +19°C° 0 mm 1 m/s 751 mmHg 76%
01:00 +19°C° 0 mm 1 m/s 751 mmHg 76%
02:00 +19°C° 0 mm 1 m/s 751 mmHg 75%
03:00 +16°C° 0 mm 0 m/s 751 mmHg 77%
04:00 +16°C° 0 mm 0 m/s 751 mmHg 78%
05:00 +15°C° 0 mm 0 m/s 751 mmHg 79%
06:00 +19°C° 0 mm 1 m/s 751 mmHg 73%
07:00 +20°C° 0 mm 1 m/s 751 mmHg 66%
08:00 +22°C° 0 mm 1 m/s 751 mmHg 60%
09:00 +23°C° 0 mm 2 m/s 751 mmHg 55%
10:00 +24°C° 0 mm 3 m/s 751 mmHg 51%
11:00 +25°C° 0 mm 4 m/s 751 mmHg 47%
12:00 +25°C° 0 mm 4 m/s 751 mmHg 46%
13:00 +25°C° 0 mm 5 m/s 751 mmHg 46%
14:00 +24°C° 0 mm 6 m/s 751 mmHg 45%
15:00 +23°C° 0 mm 6 m/s 751 mmHg 47%
16:00 +23°C° 0 mm 5 m/s 751 mmHg 49%
17:00 +22°C° 0 mm 5 m/s 751 mmHg 51%
18:00 +20°C° 0 mm 4 m/s 751 mmHg 59%
19:00 +19°C° 0 mm 3 m/s 751 mmHg 67%
20:00 +17°C° 0 mm 2 m/s 751 mmHg 76%
21:00 +17°C° 0 mm 2 m/s 751 mmHg 77%
22:00 +18°C° 0 mm 1 m/s 752 mmHg 79%
23:00 +16°C° 0 mm 1 m/s 752 mmHg 81%

17 Mai, Lundi

Heure Température Précipitation Vent Pression Humidité
00:00 +16°C° 0 mm 1 m/s 752 mmHg 81%
01:00 +16°C° 0 mm 1 m/s 752 mmHg 82%
02:00 +16°C° 0 mm 1 m/s 752 mmHg 82%
03:00 +15°C° 0 mm 1 m/s 752 mmHg 82%
04:00 +15°C° 0 mm 1 m/s 752 mmHg 82%
05:00 +15°C° 0 mm 1 m/s 752 mmHg 82%
06:00 +18°C° 0 mm 1 m/s 753 mmHg 73%
07:00 +20°C° 0 mm 1 m/s 753 mmHg 64%
08:00 +22°C° 0 mm 1 m/s 753 mmHg 55%
09:00 +23°C° 0 mm 1 m/s 753 mmHg 51%
10:00 +25°C° 0 mm 1 m/s 753 mmHg 46%
11:00 +26°C° 0 mm 1 m/s 753 mmHg 41%
12:00 +27°C° 0 mm 2 m/s 753 mmHg 40%
13:00 +28°C° 0 mm 3 m/s 753 mmHg 38%
14:00 +28°C° 0 mm 3 m/s 753 mmHg 36%
15:00 +28°C° 0 mm 3 m/s 753 mmHg 37%
16:00 +27°C° 0 mm 3 m/s 753 mmHg 38%
17:00 +27°C° 0 mm 3 m/s 753 mmHg 39%
18:00 +25°C° 0 mm 2 m/s 753 mmHg 44%
19:00 +23°C° 0 mm 2 m/s 753 mmHg 49%
20:00 +22°C° 0 mm 1 m/s 753 mmHg 54%
21:00 +21°C° 0 mm 1 m/s 753 mmHg 54%
22:00 +21°C° 0 mm 1 m/s 754 mmHg 53%
23:00 +21°C° 0 mm 1 m/s 754 mmHg 53%

18 Mai, Mardi

Heure Température Précipitation Vent Pression Humidité
00:00 +20°C° 0 mm 1 m/s 754 mmHg 54%
01:00 +20°C° 0 mm 1 m/s 753 mmHg 54%
02:00 +20°C° 0 mm 1 m/s 753 mmHg 55%
03:00 +19°C° 0 mm 2 m/s 753 mmHg 55%
04:00 +19°C° 0 mm 2 m/s 753 mmHg 56%
05:00 +18°C° 0 mm 2 m/s 753 mmHg 56%
06:00 +20°C° 0 mm 2 m/s 754 mmHg 51%
07:00 +23°C° 0 mm 1 m/s 754 mmHg 46%
08:00 +25°C° 0 mm 1 m/s 754 mmHg 42%
09:00 +27°C° 0 mm 1 m/s 754 mmHg 38%
10:00 +29°C° 0 mm 1 m/s 754 mmHg 34%
11:00 +31°C° 0 mm 2 m/s 754 mmHg 31%
12:00 +31°C° 0 mm 2 m/s 753 mmHg 31%
13:00 +31°C° 0 mm 3 m/s 753 mmHg 31%
14:00 +33°C° 0 mm 4 m/s 753 mmHg 31%
15:00 +32°C° 0 mm 4 m/s 753 mmHg 32%
16:00 +32°C° 0 mm 4 m/s 752 mmHg 32%
17:00 +32°C° 0 mm 4 m/s 752 mmHg 33%
18:00 +28°C° 0 mm 4 m/s 752 mmHg 39%
19:00 +26°C° 0 mm 3 m/s 752 mmHg 45%
20:00 +24°C° 0 mm 3 m/s 752 mmHg 50%
21:00 +24°C° 0 mm 3 m/s 752 mmHg 51%
22:00 +22°C° 0 mm 3 m/s 751 mmHg 51%
23:00 +22°C° 0 mm 3 m/s 751 mmHg 51%
Voir plus

Nous avons besoin de votre consentement

Meteoprog et ses fournisseurs de services peuvent stocker et accéder à des données personnelles telles que des cookies, des identifiants d'appareils ou d'autres technologies similaires sur votre appareil et traiter ces données pour personnaliser le contenu et les publicités, ainsi que pour fournir des fonctionnalités de médias sociaux et analyser le trafic.

  • Stocker et/ou accéder à des informations sur votre appareil

    Des cookies, des identifiants d'appareils ou d'autres informations peuvent être stockés ou accessibles sur votre appareil aux fins indiquées ci-dessus.

  • Annonces et contenus personnalisés, mesure des annonces et des contenus, connaissance de l'audience et développement de produits

    Les annonces et le contenu peuvent être personnalisés en fonction d'un profil. D'autres données peuvent être ajoutées pour mieux personnaliser les annonces et le contenu. Les performances des publicités et du contenu peuvent être mesurées. Il est possible d'obtenir des informations sur le public qui a vu les publicités et le contenu. Ces données peuvent être utilisées pour développer ou améliorer l'expérience de l'utilisateur, les systèmes et les logiciels.

En cliquant sur "J'accepte", vous autorisez l'utilisation de cookies, des identifiants d'appareils, des balises web ou d'autres technologies similaires. Vos paramètres peuvent être modifiés dans le navigateur de votre appareil.

Dans certains cas, des intérêts légitimes peuvent être invoqués plutôt qu'un consentement. Vous pouvez en savoir plus à ce sujet dans notre Politique de confidentialité et de cookies.